DECAYED

STARLINK-1147, 45095 (Decayed)

Orbit data source: Space-Track

STARLINK-1147, 45095 was a payload satellite owned by SpaceX/Seattle (US) in LEO that was launched on Wed, 29 Jan 2020 UTC via an FALCON 9 launch vehicle from the Air Force Eastern Test Range (AFETR). Payload-class satellites include a variety of spacecraft equipped with specific instruments for various scientific and technological missions. These include communications satellites like Starlink; space stations such as the ISS; scientific satellites like the Hubble; Earth observation satellites from companies like Planet Labs, Umbra, and HawkEye 360; GPS; miniature CubeSats for education and research; and military/defense satellites.

Not visible in the next 10 days
Identifier
45095, 2020-006BD
Orbit
Decayed
Country
Flag of USUS
Related business
Manufacturer
SpaceX/Seattle
Mission
Decayed Commercial Communications
Bus & Motor
STARLINK, Unknown motor
Mass
260 kg wet, ~248 kg dry
Launch date (UTC)
2020-01-29 (6 years ago)
Launch vehicle
FALCON 9
Launch site
Air Force Eastern Test Range (AFETR)
Object type
Payload
Rocket body
Debris
Shape & HBR
Box + 1 Pan, 10.1 m
Radar Cross Section
13.562 m², Large (>1 m²)

Expand to show TLE details & history
Last TLE update: 6 months ago

TLE from 6 months ago
0 STARLINK-1147
1 45095U 20006BD  25288.83096096  .10275030  12510-4  44136-3 0  9999
2 45095  53.0232 110.0668 0007652 299.9071  60.1216 16.43031994316128
Epoch: 2025-10-15T19:56Z
TLE epoch observation values (Epoch: 2025-10-15T19:56:35.026Z)
Latitude
-0.00004°
Longitude
146.32143°
Altitude
156.189 km
Speed
7.815 km/s
True Right ascension
07h 20m 16s
True Declination
0° 00' 00"
Sunlit
Object was in daylight at epoch
Visualization orbit readout
Latitude
Unknown
Longitude
Unknown
Altitude
Unknown
Speed
Unknown
Apparent Right ascension
Unknown
Apparent Declination
Unknown
Sunlit
N/A
Visualization observer readout
Local Sidereal Time
10:19:15
Azimuth
Unknown
Elevation
Unknown
Doppler factor
Unknown
Orbital elements
Apogee altitude
163.043 km
Perigee altitude
153.04 km
Semi-major axis
6,536.178 km
Eccentricity
0.00077
Inclination
53.0232°
RAAN
110.0668°
Arg. of periapsis
299.9071°
True anomaly
60.19767°
Mean anomaly
60.1216°
Eccentric anomaly
60.15963°
Mean motion
4.10731 °/min
Orbital period
87.65 mins
BSTAR
0.00044136
Loading maneuver chart data...
Computing Atmospheric mass density...
Loading historical data...
Loading historical data...
Loading historical data...
Loading historical data...
Loading historical data...
Loading historical data...
Loading historical data...

Documentation

Showing up to 5 results
|